Time,TemperatureF,DewpointF,PressureIn,WindDirection,WindDirectionDegrees,WindSpeedMPH,WindSpeedGustMPH,Humidity,HourlyPrecipIn,Conditions,Clouds,dailyrainin,SoftwareType,DateUTC
2013-02-06 00:00:00,28.0,26.0,29.94,West,260,0.0,1.0,92,0.00,,---,0.00,VWS V14.01,2013-02-06 05:00:00,
2013-02-06 00:05:00,27.9,25.9,29.94,WSW,256,0.0,1.0,92,0.00,,---,0.00,VWS V14.01,2013-02-06 05:05:00,
2013-02-06 00:10:00,27.9,25.9,29.94,WSW,256,0.0,1.0,92,0.00,,---,0.00,VWS V14.01,2013-02-06 05:10:00,
2013-02-06 00:15:00,28.0,26.0,29.94,WSW,256,0.0,1.0,92,0.00,,---,0.00,VWS V14.01,2013-02-06 05:15:00,
2013-02-06 00:20:00,28.0,26.0,29.94,WSW,256,0.0,1.0,92,0.00,,---,0.00,VWS V14.01,2013-02-06 05:20:00,
2013-02-06 00:25:00,28.0,26.0,29.94,WSW,255,0.0,1.0,92,0.00,,---,0.00,VWS V14.01,2013-02-06 05:25:00,
2013-02-06 00:30:00,28.0,26.0,29.94,WSW,257,1.0,1.0,92,0.00,,---,0.00,VWS V14.01,2013-02-06 05:30:00,
2013-02-06 00:35:00,28.0,26.0,29.94,West,259,0.0,1.0,92,0.00,,---,0.00,VWS V14.01,2013-02-06 05:35:00,
2013-02-06 00:40:00,28.0,26.0,29.94,West,259,0.0,1.0,92,0.00,,---,0.00,VWS V14.01,2013-02-06 05:40:00,
2013-02-06 00:45:00,27.9,25.9,29.94,West,259,0.0,1.0,92,0.00,,---,0.00,VWS V14.01,2013-02-06 05:45:00,
2013-02-06 00:50:00,28.0,26.0,29.94,West,269,0.0,2.0,92,0.00,,---,0.00,VWS V14.01,2013-02-06 05:50:00,
2013-02-06 00:55:00,28.0,26.0,29.94,West,268,0.0,2.0,92,0.00,,---,0.00,VWS V14.01,2013-02-06 05:55:00,
2013-02-06 01:00:00,28.0,26.0,29.94,West,269,0.0,2.0,92,0.00,,---,0.00,VWS V14.01,2013-02-06 06:00:00,
2013-02-06 01:05:00,28.1,26.1,29.94,West,269,0.0,0.0,92,0.00,,---,0.00,VWS V14.01,2013-02-06 06:05:00,
2013-02-06 01:10:00,28.0,26.0,29.94,West,269,0.0,0.0,92,0.00,,---,0.00,VWS V14.01,2013-02-06 06:10:00,
2013-02-06 01:15:00,28.0,26.2,29.94,West,269,0.0,0.0,93,0.00,,---,0.00,VWS V14.01,2013-02-06 06:15:00,
2013-02-06 01:20:00,28.0,26.2,29.94,West,269,0.0,0.0,93,0.00,,---,0.00,VWS V14.01,2013-02-06 06:20:00,
2013-02-06 01:25:00,28.1,26.3,29.94,West,268,0.0,0.0,93,0.00,,---,0.00,VWS V14.01,2013-02-06 06:25:00,
2013-02-06 01:30:00,28.0,26.2,29.94,West,269,0.0,1.0,93,0.00,,---,0.00,VWS V14.01,2013-02-06 06:30:00,
2013-02-06 01:35:00,28.0,26.2,29.94,West,269,0.0,0.0,93,0.00,,---,0.00,VWS V14.01,2013-02-06 06:35:00,
2013-02-06 01:40:00,28.0,26.2,29.94,West,269,0.0,0.0,93,0.00,,---,0.00,VWS V14.01,2013-02-06 06:40:00,
2013-02-06 01:45:00,28.0,26.5,29.94,West,269,0.0,0.0,94,0.00,,---,0.00,VWS V14.01,2013-02-06 06:45:00,
2013-02-06 01:50:00,28.0,26.5,29.94,West,269,0.0,1.0,94,0.00,,---,0.00,VWS V14.01,2013-02-06 06:50:00,
2013-02-06 01:55:00,28.1,26.6,29.94,ESE,115,0.0,1.0,94,0.00,,---,0.00,VWS V14.01,2013-02-06 06:55:00,
2013-02-06 02:00:00,28.1,26.6,29.94,ESE,115,0.0,1.0,94,0.00,,---,0.00,VWS V14.01,2013-02-06 07:00:00,
2013-02-06 02:05:00,28.0,26.5,29.94,ESE,116,0.0,1.0,94,0.00,,---,0.00,VWS V14.01,2013-02-06 07:05:00,
2013-02-06 02:10:00,28.0,26.5,29.94,ESE,115,0.0,1.0,94,0.00,,---,0.00,VWS V14.01,2013-02-06 07:10:00,
2013-02-06 02:15:00,28.0,26.5,29.93,ESE,115,0.0,1.0,94,0.00,,---,0.00,VWS V14.01,2013-02-06 07:15:00,
2013-02-06 02:20:00,28.0,26.5,29.93,ESE,116,0.0,1.0,94,0.00,,---,0.00,VWS V14.01,2013-02-06 07:20:00,
2013-02-06 02:25:00,28.0,26.5,29.94,ESE,115,0.0,1.0,94,0.00,,---,0.00,VWS V14.01,2013-02-06 07:25:00,
2013-02-06 02:30:00,28.0,26.5,29.94,ESE,115,0.0,1.0,94,0.00,,---,0.00,VWS V14.01,2013-02-06 07:30:00,
2013-02-06 02:35:00,27.9,26.4,29.94,ESE,116,0.0,0.0,94,0.00,,---,0.00,VWS V14.01,2013-02-06 07:35:00,
2013-02-06 02:40:00,27.9,26.4,29.94,ESE,115,0.0,0.0,94,0.00,,---,0.00,VWS V14.01,2013-02-06 07:40:00,
2013-02-06 02:45:00,27.9,26.4,29.93,ESE,115,0.0,0.0,94,0.00,,---,0.00,VWS V14.01,2013-02-06 07:45:00,
2013-02-06 02:50:00,27.8,26.3,29.93,ESE,116,0.0,0.0,94,0.00,,---,0.00,VWS V14.01,2013-02-06 07:50:00,
2013-02-06 02:55:00,27.8,26.3,29.94,ESE,116,0.0,0.0,94,0.00,,---,0.00,VWS V14.01,2013-02-06 07:55:00,
2013-02-06 03:00:00,27.8,26.3,29.94,ESE,116,0.0,0.0,94,0.00,,---,0.00,VWS V14.01,2013-02-06 08:00:00,
2013-02-06 03:05:00,27.8,26.3,29.94,ESE,116,0.0,0.0,94,0.00,,---,0.00,VWS V14.01,2013-02-06 08:05:00,
2013-02-06 03:10:00,27.7,26.2,29.94,ESE,115,0.0,0.0,94,0.00,,---,0.00,VWS V14.01,2013-02-06 08:10:00,
2013-02-06 03:15:00,27.7,26.2,29.94,ESE,115,0.0,1.0,94,0.00,,---,0.00,VWS V14.01,2013-02-06 08:15:00,
2013-02-06 03:20:00,27.7,26.2,29.94,ESE,115,0.0,1.0,94,0.00,,---,0.00,VWS V14.01,2013-02-06 08:20:00,
2013-02-06 03:25:00,27.6,26.1,29.94,ESE,116,0.0,1.0,94,0.00,,---,0.00,VWS V14.01,2013-02-06 08:25:00,
2013-02-06 03:30:00,27.5,26.0,29.95,ESE,115,0.0,1.0,94,0.00,,---,0.00,VWS V14.01,2013-02-06 08:30:00,
2013-02-06 03:35:00,27.4,25.9,29.95,ESE,116,0.0,0.0,94,0.00,,---,0.00,VWS V14.01,2013-02-06 08:35:00,
2013-02-06 03:40:00,27.4,25.9,29.95,ESE,115,0.0,0.0,94,0.00,,---,0.00,VWS V14.01,2013-02-06 08:40:00,
2013-02-06 03:45:00,27.4,26.2,29.95,West,271,1.0,1.0,95,0.00,,---,0.00,VWS V14.01,2013-02-06 08:45:00,
2013-02-06 03:50:00,27.5,26.3,29.95,West,259,0.0,2.0,95,0.00,,---,0.00,VWS V14.01,2013-02-06 08:50:00,
2013-02-06 03:55:00,27.5,26.3,29.95,WSW,258,0.0,2.0,95,0.00,,---,0.00,VWS V14.01,2013-02-06 08:55:00,
2013-02-06 04:00:00,27.5,26.3,29.95,West,259,0.0,2.0,95,0.00,,---,0.00,VWS V14.01,2013-02-06 09:00:00,
2013-02-06 04:05:00,27.5,26.3,29.95,West,259,0.0,0.0,95,0.00,,---,0.00,VWS V14.01,2013-02-06 09:05:00,
2013-02-06 04:10:00,27.4,26.2,29.95,West,259,0.0,0.0,95,0.00,,---,0.00,VWS V14.01,2013-02-06 09:10:00,
2013-02-06 04:15:00,27.3,26.1,29.95,West,259,0.0,0.0,95,0.00,,---,0.00,VWS V14.01,2013-02-06 09:15:00,
2013-02-06 04:20:00,27.3,26.1,29.96,West,259,0.0,0.0,95,0.00,,---,0.00,VWS V14.01,2013-02-06 09:20:00,
2013-02-06 04:25:00,27.3,26.1,29.96,West,260,0.0,0.0,95,0.00,,---,0.00,VWS V14.01,2013-02-06 09:25:00,
2013-02-06 04:30:00,27.2,26.0,29.96,West,260,0.0,0.0,95,0.00,,---,0.00,VWS V14.01,2013-02-06 09:30:00,
2013-02-06 04:35:00,27.1,25.9,29.96,West,260,0.0,0.0,95,0.00,,---,0.00,VWS V14.01,2013-02-06 09:35:00,
2013-02-06 04:40:00,26.9,25.7,29.97,West,260,0.0,0.0,95,0.00,,---,0.00,VWS V14.01,2013-02-06 09:40:00,
2013-02-06 04:45:00,26.7,25.5,29.97,West,260,0.0,0.0,95,0.00,,---,0.00,VWS V14.01,2013-02-06 09:45:00,
2013-02-06 04:50:00,26.5,25.3,29.97,West,259,0.0,0.0,95,0.00,,---,0.00,VWS V14.01,2013-02-06 09:50:00,
2013-02-06 04:55:00,26.2,25.0,29.97,West,259,0.0,0.0,95,0.00,,---,0.00,VWS V14.01,2013-02-06 09:55:00,
2013-02-06 05:00:00,26.0,24.8,29.98,West,259,0.0,0.0,95,0.00,,---,0.00,VWS V14.01,2013-02-06 10:00:00,
2013-02-06 05:05:00,25.8,24.6,29.98,West,259,0.0,0.0,95,0.00,,---,0.00,VWS V14.01,2013-02-06 10:05:00,
2013-02-06 05:10:00,25.5,24.3,29.98,West,259,0.0,0.0,95,0.00,,---,0.00,VWS V14.01,2013-02-06 10:10:00,
2013-02-06 05:15:00,25.3,24.1,29.98,West,259,0.0,0.0,95,0.00,,---,0.00,VWS V14.01,2013-02-06 10:15:00,
2013-02-06 05:20:00,25.0,23.8,29.99,WSW,258,0.0,0.0,95,0.00,,---,0.00,VWS V14.01,2013-02-06 10:20:00,
2013-02-06 05:25:00,24.8,23.8,29.99,West,259,0.0,0.0,96,0.00,,---,0.00,VWS V14.01,2013-02-06 10:25:00,
2013-02-06 05:30:00,24.7,23.7,29.99,West,259,0.0,0.0,96,0.00,,---,0.00,VWS V14.01,2013-02-06 10:30:00,
2013-02-06 05:35:00,24.6,23.6,29.99,West,259,0.0,0.0,96,0.00,,---,0.00,VWS V14.01,2013-02-06 10:35:00,
2013-02-06 05:40:00,24.4,23.4,29.99,West,259,0.0,0.0,96,0.00,,---,0.00,VWS V14.01,2013-02-06 10:40:00,
2013-02-06 05:45:00,24.3,23.3,30.00,West,259,0.0,0.0,96,0.00,,---,0.00,VWS V14.01,2013-02-06 10:45:00,
2013-02-06 05:50:00,24.2,23.2,30.00,West,259,0.0,0.0,96,0.00,,---,0.00,VWS V14.01,2013-02-06 10:50:00,
2013-02-06 05:55:00,24.2,23.2,30.00,West,260,0.0,1.0,96,0.00,,---,0.00,VWS V14.01,2013-02-06 10:55:00,
2013-02-06 06:00:00,24.3,23.3,30.00,West,260,0.0,1.0,96,0.00,,---,0.00,VWS V14.01,2013-02-06 11:00:00,
2013-02-06 06:05:00,24.4,23.4,30.00,West,260,1.0,1.0,96,0.00,,---,0.00,VWS V14.01,2013-02-06 11:05:00,
2013-02-06 06:10:00,24.3,23.3,30.00,West,260,0.0,1.0,96,0.00,,---,0.00,VWS V14.01,2013-02-06 11:10:00,
2013-02-06 06:15:00,24.3,23.3,30.01,West,260,0.0,1.0,96,0.00,,---,0.00,VWS V14.01,2013-02-06 11:15:00,
2013-02-06 06:20:00,24.3,23.3,30.01,West,260,0.0,1.0,96,0.00,,---,0.00,VWS V14.01,2013-02-06 11:20:00,
2013-02-06 06:25:00,24.2,23.2,30.01,West,260,0.0,1.0,96,0.00,,---,0.00,VWS V14.01,2013-02-06 11:25:00,
2013-02-06 06:30:00,24.2,23.2,30.01,West,260,0.0,1.0,96,0.00,,---,0.00,VWS V14.01,2013-02-06 11:30:00,
2013-02-06 06:35:00,24.0,23.0,30.02,West,260,0.0,0.0,96,0.00,,---,0.00,VWS V14.01,2013-02-06 11:35:00,
2013-02-06 06:40:00,23.9,22.9,30.02,West,260,0.0,0.0,96,0.00,,---,0.00,VWS V14.01,2013-02-06 11:40:00,
2013-02-06 06:45:00,23.7,22.7,30.02,West,260,0.0,0.0,96,0.00,,---,0.00,VWS V14.01,2013-02-06 11:45:00,
2013-02-06 06:50:00,23.6,22.6,30.02,West,259,0.0,0.0,96,0.00,,---,0.00,VWS V14.01,2013-02-06 11:50:00,
2013-02-06 06:55:00,23.4,22.4,30.02,West,259,0.0,0.0,96,0.00,,---,0.00,VWS V14.01,2013-02-06 11:55:00,
2013-02-06 07:00:00,23.2,22.2,30.02,WSW,258,0.0,0.0,96,0.00,,---,0.00,VWS V14.01,2013-02-06 12:00:00,
2013-02-06 07:05:00,22.9,21.9,30.03,West,259,0.0,0.0,96,0.00,,---,0.00,VWS V14.01,2013-02-06 12:05:00,
2013-02-06 07:10:00,22.8,21.8,30.03,West,259,0.0,0.0,96,0.00,,---,0.00,VWS V14.01,2013-02-06 12:10:00,
2013-02-06 07:15:00,22.7,21.7,30.03,West,259,0.0,0.0,96,0.00,,---,0.00,VWS V14.01,2013-02-06 12:15:00,
2013-02-06 07:20:00,22.5,21.5,30.04,West,259,0.0,0.0,96,0.00,,---,0.00,VWS V14.01,2013-02-06 12:20:00,
2013-02-06 07:25:00,22.5,21.5,30.05,West,259,0.0,0.0,96,0.00,,---,0.00,VWS V14.01,2013-02-06 12:25:00,
2013-02-06 07:30:00,22.5,21.5,30.05,West,259,0.0,0.0,96,0.00,,---,0.00,VWS V14.01,2013-02-06 12:30:00,
2013-02-06 07:35:00,22.5,21.5,30.05,SE,144,0.0,1.0,96,0.00,,---,0.00,VWS V14.01,2013-02-06 12:35:00,
2013-02-06 07:40:00,22.7,21.7,30.06,SE,144,0.0,1.0,96,0.00,,---,0.00,VWS V14.01,2013-02-06 12:40:00,
2013-02-06 07:45:00,22.7,21.7,30.07,SE,144,0.0,1.0,96,0.00,,---,0.00,VWS V14.01,2013-02-06 12:45:00,
2013-02-06 07:50:00,22.9,22.2,30.07,SE,145,0.0,1.0,97,0.00,,---,0.00,VWS V14.01,2013-02-06 12:50:00,
2013-02-06 07:55:00,23.0,22.0,30.07,SE,144,0.0,1.0,96,0.00,,---,0.00,VWS V14.01,2013-02-06 12:55:00,
2013-02-06 08:00:00,23.5,22.8,30.07,SSE,150,0.0,1.0,97,0.00,,---,0.00,VWS V14.01,2013-02-06 13:00:00,
2013-02-06 08:05:00,23.7,23.0,30.07,SSE,149,0.0,0.0,97,0.00,,---,0.00,VWS V14.01,2013-02-06 13:05:00,
2013-02-06 08:10:00,23.8,23.1,30.07,SSE,149,0.0,0.0,97,0.00,,---,0.00,VWS V14.01,2013-02-06 13:10:00,
2013-02-06 08:15:00,24.0,23.3,30.08,SSE,149,0.0,0.0,97,0.00,,---,0.00,VWS V14.01,2013-02-06 13:15:00,
2013-02-06 08:20:00,24.3,23.6,30.08,SSE,149,0.0,0.0,97,0.00,,---,0.00,VWS V14.01,2013-02-06 13:20:00,
2013-02-06 08:25:00,24.8,24.1,30.08,North,349,0.0,1.0,97,0.00,,---,0.00,VWS V14.01,2013-02-06 13:25:00,
2013-02-06 08:30:00,25.3,24.6,30.08,NNW,345,0.0,1.0,97,0.00,,---,0.00,VWS V14.01,2013-02-06 13:30:00,
2013-02-06 08:35:00,25.9,25.2,30.08,SW,236,1.0,1.0,97,0.00,,---,0.00,VWS V14.01,2013-02-06 13:35:00,
2013-02-06 08:40:00,26.6,25.9,30.08,West,262,2.0,5.0,97,0.00,,---,0.00,VWS V14.01,2013-02-06 13:40:00,
2013-02-06 08:45:00,27.1,25.9,30.08,West,274,0.0,5.0,95,0.00,,---,0.00,VWS V14.01,2013-02-06 13:45:00,
2013-02-06 08:50:00,27.7,25.7,30.08,NNW,330,1.0,5.0,92,0.00,,---,0.00,VWS V14.01,2013-02-06 13:50:00,
2013-02-06 08:55:00,28.5,25.7,30.08,NE,36,5.0,5.0,89,0.00,,---,0.00,VWS V14.01,2013-02-06 13:55:00,
2013-02-06 09:00:00,29.1,25.2,30.08,WNW,291,7.0,7.0,85,0.00,,---,0.00,VWS V14.01,2013-02-06 14:00:00,
2013-02-06 09:05:00,29.8,25.0,30.08,NNE,13,0.0,5.0,82,0.00,,---,0.00,VWS V14.01,2013-02-06 14:05:00,
2013-02-06 09:10:00,30.2,24.8,30.08,West,266,2.0,8.0,80,0.00,,---,0.00,VWS V14.01,2013-02-06 14:10:00,
2013-02-06 09:15:00,30.7,25.0,30.08,West,275,0.0,8.0,79,0.00,,---,0.00,VWS V14.01,2013-02-06 14:15:00,
2013-02-06 09:20:00,31.1,24.8,30.09,NW,315,4.0,8.0,77,0.00,,---,0.00,VWS V14.01,2013-02-06 14:20:00,
2013-02-06 09:25:00,31.4,24.7,30.09,West,270,2.0,8.0,76,0.00,,---,0.00,VWS V14.01,2013-02-06 14:25:00,
2013-02-06 09:30:00,31.6,24.6,30.09,South,181,2.0,8.0,75,0.00,,---,0.00,VWS V14.01,2013-02-06 14:30:00,
2013-02-06 09:35:00,31.8,25.1,30.09,West,270,1.0,3.0,76,0.00,,---,0.00,VWS V14.01,2013-02-06 14:35:00,
2013-02-06 09:40:00,31.9,24.6,30.10,North,4,2.0,5.0,74,0.00,,---,0.00,VWS V14.01,2013-02-06 14:40:00,
2013-02-06 09:45:00,32.1,24.1,30.11,West,273,5.0,8.0,72,0.00,,---,0.00,VWS V14.01,2013-02-06 14:45:00,
2013-02-06 09:50:00,32.1,23.8,30.10,NW,305,1.0,8.0,71,0.00,,---,0.00,VWS V14.01,2013-02-06 14:50:00,
2013-02-06 09:55:00,32.2,23.5,30.11,WNW,291,4.0,8.0,70,0.00,,---,0.00,VWS V14.01,2013-02-06 14:55:00,
2013-02-06 10:00:00,32.4,23.7,30.11,SW,215,2.0,9.0,70,0.00,,---,0.00,VWS V14.01,2013-02-06 15:00:00,
2013-02-06 10:05:00,32.5,23.8,30.11,NNW,335,0.0,4.0,70,0.00,,---,0.00,VWS V14.01,2013-02-06 15:05:00,
2013-02-06 10:09:00,32.7,23.7,30.11,WNW,290,4.0,6.0,69,0.00,,---,0.00,VWS V14.01,2013-02-06 15:09:00,
2013-02-06 10:15:00,32.7,23.7,30.11,NW,318,3.0,9.0,69,0.00,,---,0.00,VWS V14.01,2013-02-06 15:15:00,
2013-02-06 10:20:00,32.9,23.9,30.11,WNW,294,3.0,9.0,69,0.00,,---,0.00,VWS V14.01,2013-02-06 15:20:00,
2013-02-06 10:25:00,33.0,24.0,30.11,West,262,2.0,9.0,69,0.00,,---,0.00,VWS V14.01,2013-02-06 15:25:00,
2013-02-06 10:30:00,33.2,23.8,30.12,NW,305,3.0,9.0,68,0.00,,---,0.00,VWS V14.01,2013-02-06 15:30:00,
2013-02-06 10:35:00,33.4,23.6,30.11,SSW,194,1.0,10.0,67,0.00,,---,0.00,VWS V14.01,2013-02-06 15:35:00,
2013-02-06 10:40:00,33.6,23.5,30.11,NW,314,3.0,10.0,66,0.00,,---,0.00,VWS V14.01,2013-02-06 15:40:00,
2013-02-06 10:45:00,33.7,23.6,30.11,WNW,288,5.0,10.0,66,0.00,,---,0.00,VWS V14.01,2013-02-06 15:45:00,
2013-02-06 10:50:00,33.9,23.8,30.11,WNW,291,1.0,10.0,66,0.00,,---,0.00,VWS V14.01,2013-02-06 15:50:00,
2013-02-06 10:55:00,34.3,23.4,30.11,WNW,285,4.0,10.0,64,0.00,,---,0.00,VWS V14.01,2013-02-06 15:55:00,
2013-02-06 11:00:00,34.3,23.0,30.11,NNW,343,2.0,10.0,63,0.00,,---,0.00,VWS V14.01,2013-02-06 16:00:00,
2013-02-06 11:05:00,34.6,23.3,30.10,WNW,302,5.0,9.0,63,0.00,,---,0.00,VWS V14.01,2013-02-06 16:05:00,
2013-02-06 11:09:00,34.8,22.3,30.11,NW,313,4.0,10.0,60,0.00,,---,0.00,VWS V14.01,2013-02-06 16:09:00,
2013-02-06 11:14:00,34.7,22.2,30.11,NW,323,9.0,11.0,60,0.00,,---,0.00,VWS V14.01,2013-02-06 16:14:00,
2013-02-06 11:19:00,34.6,22.2,30.11,WNW,301,5.0,11.0,60,0.00,,---,0.00,VWS V14.01,2013-02-06 16:19:00,
2013-02-06 11:24:00,34.9,22.8,30.11,SW,222,2.0,11.0,61,0.00,,---,0.00,VWS V14.01,2013-02-06 16:24:00,
2013-02-06 11:29:00,35.0,22.1,30.11,West,271,5.0,11.0,59,0.00,,---,0.00,VWS V14.01,2013-02-06 16:29:00,
2013-02-06 11:30:00,34.9,22.4,30.11,NNW,343,3.0,11.0,60,0.00,,---,0.00,VWS V14.01,2013-02-06 16:30:00,
2013-02-06 11:34:00,34.8,22.3,30.11,NW,305,2.0,9.0,60,0.00,,---,0.00,VWS V14.01,2013-02-06 16:34:00,
2013-02-06 11:39:00,35.4,23.7,30.11,SSW,204,2.0,9.0,62,0.00,,---,0.00,VWS V14.01,2013-02-06 16:39:00,
2013-02-06 11:44:00,35.6,23.1,30.11,NNW,328,1.0,9.0,60,0.00,,---,0.00,VWS V14.01,2013-02-06 16:44:00,
2013-02-06 11:49:00,35.5,23.0,30.11,WSW,255,5.0,9.0,60,0.00,,---,0.00,VWS V14.01,2013-02-06 16:49:00,
2013-02-06 11:54:00,35.1,22.2,30.11,WSW,240,3.0,9.0,59,0.00,,---,0.00,VWS V14.01,2013-02-06 16:54:00,
2013-02-06 11:59:00,34.8,22.0,30.11,WSW,256,10.0,12.0,59,0.00,,---,0.00,VWS V14.01,2013-02-06 16:59:00,
2013-02-06 12:00:00,34.8,22.0,30.11,West,263,3.0,12.0,59,0.00,,---,0.00,VWS V14.01,2013-02-06 17:00:00,
2013-02-06 12:04:00,34.7,21.9,30.11,NNW,328,4.0,7.0,59,0.00,,---,0.00,VWS V14.01,2013-02-06 17:04:00,
2013-02-06 12:09:00,34.7,22.6,30.11,West,271,1.0,7.0,61,0.00,,---,0.00,VWS V14.01,2013-02-06 17:09:00,
2013-02-06 12:14:00,34.8,22.7,30.11,SW,233,2.0,7.0,61,0.00,,---,0.00,VWS V14.01,2013-02-06 17:14:00,
2013-02-06 12:19:00,35.0,22.9,30.11,WNW,288,5.0,8.0,61,0.00,,---,0.00,VWS V14.01,2013-02-06 17:19:00,
2013-02-06 12:28:00,35.0,22.5,30.11,NNW,340,1.0,8.0,60,0.00,,---,0.00,VWS V14.01,2013-02-06 17:28:00,
2013-02-06 12:30:00,35.0,22.1,30.11,NW,305,5.0,11.0,59,0.00,,---,0.00,VWS V14.01,2013-02-06 17:30:00,
2013-02-06 12:33:00,35.0,22.1,30.11,West,259,5.0,10.0,59,0.00,,---,0.00,VWS V14.01,2013-02-06 17:33:00,
2013-02-06 12:38:00,35.0,21.7,30.11,East,81,2.0,10.0,58,0.00,,---,0.00,VWS V14.01,2013-02-06 17:38:00,
2013-02-06 12:43:00,35.1,22.2,30.11,NW,315,2.0,10.0,59,0.00,,---,0.00,VWS V14.01,2013-02-06 17:43:00,
2013-02-06 12:48:00,35.2,21.1,30.11,NW,319,3.0,10.0,56,0.00,,---,0.00,VWS V14.01,2013-02-06 17:48:00,
2013-02-06 12:53:00,35.5,21.0,30.11,NNE,15,2.0,10.0,55,0.00,,---,0.00,VWS V14.01,2013-02-06 17:53:00,
2013-02-06 12:58:00,35.7,21.6,30.11,West,278,3.0,10.0,56,0.00,,---,0.00,VWS V14.01,2013-02-06 17:58:00,
2013-02-06 13:00:00,35.7,21.6,30.11,WSW,254,3.0,10.0,56,0.00,,---,0.00,VWS V14.01,2013-02-06 18:00:00,
2013-02-06 13:03:00,35.8,21.2,30.12,NW,304,5.0,6.0,55,0.00,,---,0.00,VWS V14.01,2013-02-06 18:03:00,
2013-02-06 13:08:00,36.0,21.0,30.12,West,275,9.0,10.0,54,0.00,,---,0.00,VWS V14.01,2013-02-06 18:08:00,
2013-02-06 13:13:00,36.0,20.1,30.11,West,274,5.0,12.0,52,0.00,,---,0.00,VWS V14.01,2013-02-06 18:13:00,
2013-02-06 13:18:00,36.1,19.7,30.12,NNE,13,5.0,12.0,51,0.00,,---,0.00,VWS V14.01,2013-02-06 18:18:00,
2013-02-06 13:23:00,36.5,20.1,30.12,WNW,283,4.0,12.0,51,0.00,,---,0.00,VWS V14.01,2013-02-06 18:23:00,
2013-02-06 13:28:00,36.4,20.0,30.12,West,259,11.0,13.0,51,0.00,,---,0.00,VWS V14.01,2013-02-06 18:28:00,
2013-02-06 13:30:00,36.3,19.9,30.12,WSW,250,11.0,13.0,51,0.00,,---,0.00,VWS V14.01,2013-02-06 18:30:00,
2013-02-06 13:33:00,36.1,19.7,30.12,SSE,154,5.0,15.0,51,0.00,,---,0.00,VWS V14.01,2013-02-06 18:33:00,
2013-02-06 13:38:00,36.1,20.6,30.12,WNW,290,6.0,15.0,53,0.00,,---,0.00,VWS V14.01,2013-02-06 18:38:00,
2013-02-06 13:43:00,36.3,19.9,30.13,NW,317,6.0,15.0,51,0.00,,---,0.00,VWS V14.01,2013-02-06 18:43:00,
2013-02-06 13:48:00,36.5,19.2,30.12,WNW,300,2.0,15.0,49,0.00,,---,0.00,VWS V14.01,2013-02-06 18:48:00,
2013-02-06 13:53:00,36.4,19.1,30.12,WNW,293,4.0,15.0,49,0.00,,---,0.00,VWS V14.01,2013-02-06 18:53:00,
2013-02-06 13:58:00,36.3,19.5,30.12,WSW,250,3.0,15.0,50,0.01,,---,0.01,VWS V14.01,2013-02-06 18:58:00,
2013-02-06 14:00:00,36.3,19.9,30.12,West,262,10.0,15.0,51,0.01,,---,0.01,VWS V14.01,2013-02-06 19:00:00,
2013-02-06 14:03:00,36.3,19.5,30.12,West,271,8.0,10.0,50,0.01,,---,0.01,VWS V14.01,2013-02-06 19:03:00,
2013-02-06 14:08:00,36.6,19.7,30.12,WNW,285,3.0,12.0,50,0.01,,---,0.01,VWS V14.01,2013-02-06 19:08:00,
2013-02-06 14:13:00,37.2,19.8,30.13,WNW,282,2.0,12.0,49,0.01,,---,0.01,VWS V14.01,2013-02-06 19:13:00,
2013-02-06 14:18:00,37.7,21.7,30.13,North,352,5.0,12.0,52,0.01,,---,0.01,VWS V14.01,2013-02-06 19:18:00,
2013-02-06 14:23:00,38.0,21.0,30.13,NNE,14,1.0,12.0,50,0.01,,---,0.01,VWS V14.01,2013-02-06 19:23:00,
2013-02-06 14:28:00,38.0,20.1,30.13,South,186,2.0,12.0,48,0.01,,---,0.01,VWS V14.01,2013-02-06 19:28:00,
2013-02-06 14:30:00,38.0,19.6,30.13,NNE,18,5.0,12.0,47,0.01,,---,0.01,VWS V14.01,2013-02-06 19:30:00,
2013-02-06 14:33:00,37.7,19.3,30.14,WNW,293,10.0,11.0,47,0.01,,---,0.01,VWS V14.01,2013-02-06 19:33:00,
2013-02-06 14:38:00,37.2,19.8,30.14,West,274,9.0,13.0,49,0.01,,---,0.01,VWS V14.01,2013-02-06 19:38:00,
2013-02-06 14:43:00,37.3,20.4,30.14,North,350,3.0,13.0,50,0.01,,---,0.01,VWS V14.01,2013-02-06 19:43:00,
2013-02-06 14:48:00,37.6,19.7,30.14,NE,36,5.0,13.0,48,0.01,,---,0.01,VWS V14.01,2013-02-06 19:48:00,
2013-02-06 14:53:00,37.6,20.7,30.14,WSW,247,5.0,13.0,50,0.01,,---,0.01,VWS V14.01,2013-02-06 19:53:00,
2013-02-06 14:58:00,37.6,19.7,30.14,NW,319,5.0,15.0,48,0.01,,---,0.01,VWS V14.01,2013-02-06 19:58:00,
2013-02-06 15:00:00,37.7,19.8,30.14,NW,325,4.0,15.0,48,0.01,,---,0.01,VWS V14.01,2013-02-06 20:00:00,
2013-02-06 15:03:00,37.9,20.5,30.14,West,273,5.0,8.0,49,0.00,,---,0.01,VWS V14.01,2013-02-06 20:03:00,
2013-02-06 15:08:00,37.9,20.0,30.14,WNW,295,9.0,15.0,48,0.00,,---,0.01,VWS V14.01,2013-02-06 20:08:00,
2013-02-06 15:13:00,37.7,19.3,30.14,West,274,5.0,15.0,47,0.00,,---,0.01,VWS V14.01,2013-02-06 20:13:00,
2013-02-06 15:18:00,37.3,18.9,30.15,West,264,8.0,15.0,47,0.00,,---,0.01,VWS V14.01,2013-02-06 20:18:00,
2013-02-06 15:23:00,36.7,18.9,30.15,West,280,3.0,15.0,48,0.00,,---,0.01,VWS V14.01,2013-02-06 20:23:00,
2013-02-06 15:28:00,36.7,18.4,30.16,NW,307,2.0,15.0,47,0.00,,---,0.01,VWS V14.01,2013-02-06 20:28:00,
2013-02-06 15:30:00,36.7,18.9,30.16,NW,319,4.0,15.0,48,0.00,,---,0.01,VWS V14.01,2013-02-06 20:30:00,
2013-02-06 15:33:00,36.8,19.0,30.16,NNE,20,6.0,8.0,48,0.00,,---,0.01,VWS V14.01,2013-02-06 20:33:00,
2013-02-06 15:37:00,36.8,18.5,30.16,WNW,293,2.0,10.0,47,0.00,,---,0.01,VWS V14.01,2013-02-06 20:37:00,
2013-02-06 15:42:00,36.7,18.9,30.16,NW,319,3.0,10.0,48,0.00,,---,0.01,VWS V14.01,2013-02-06 20:42:00,
2013-02-06 15:47:00,36.7,19.4,30.16,NNE,30,2.0,10.0,49,0.00,,---,0.01,VWS V14.01,2013-02-06 20:47:00,
2013-02-06 15:52:00,36.8,20.4,30.17,WNW,294,5.0,10.0,51,0.00,,---,0.01,VWS V14.01,2013-02-06 20:52:00,
2013-02-06 15:57:00,36.7,19.8,30.17,West,269,3.0,10.0,50,0.00,,---,0.01,VWS V14.01,2013-02-06 20:57:00,
2013-02-06 16:00:00,36.5,18.7,30.17,WSW,247,4.0,10.0,48,0.00,,---,0.01,VWS V14.01,2013-02-06 21:00:00,
2013-02-06 16:02:00,36.4,18.1,30.17,WNW,302,4.0,6.0,47,0.00,,---,0.01,VWS V14.01,2013-02-06 21:02:00,
2013-02-06 16:07:00,36.3,18.0,30.17,NNW,332,2.0,7.0,47,0.00,,---,0.01,VWS V14.01,2013-02-06 21:07:00,
2013-02-06 16:12:00,36.5,17.2,30.18,NNE,18,4.0,10.0,45,0.00,,---,0.01,VWS V14.01,2013-02-06 21:12:00,
2013-02-06 16:17:00,36.6,17.3,30.18,West,277,3.0,10.0,45,0.00,,---,0.01,VWS V14.01,2013-02-06 21:17:00,
2013-02-06 16:22:00,36.8,18.0,30.18,NW,315,4.0,10.0,46,0.00,,---,0.01,VWS V14.01,2013-02-06 21:22:00,
2013-02-06 16:27:00,36.7,16.9,30.18,WNW,298,3.0,10.0,44,0.00,,---,0.01,VWS V14.01,2013-02-06 21:27:00,
2013-02-06 16:30:00,36.7,16.3,30.18,West,276,5.0,10.0,43,0.00,,---,0.01,VWS V14.01,2013-02-06 21:30:00,
2013-02-06 16:32:00,36.6,16.2,30.18,NNE,18,6.0,12.0,43,0.00,,---,0.01,VWS V14.01,2013-02-06 21:32:00,
2013-02-06 16:37:00,36.4,16.6,30.19,SW,235,7.0,12.0,44,0.00,,---,0.01,VWS V14.01,2013-02-06 21:37:00,
2013-02-06 16:42:00,36.2,16.9,30.19,WNW,299,3.0,12.0,45,0.00,,---,0.01,VWS V14.01,2013-02-06 21:42:00,
2013-02-06 16:47:00,36.2,16.4,30.19,West,271,1.0,12.0,44,0.00,,---,0.01,VWS V14.01,2013-02-06 21:47:00,
2013-02-06 16:52:00,36.1,16.8,30.20,NNW,329,2.0,12.0,45,0.00,,---,0.01,VWS V14.01,2013-02-06 21:52:00,
2013-02-06 16:57:00,36.1,16.3,30.19,NNW,340,2.0,12.0,44,0.00,,---,0.01,VWS V14.01,2013-02-06 21:57:00,
2013-02-06 17:00:00,36.0,16.7,30.20,WNW,287,4.0,12.0,45,0.00,,---,0.01,VWS V14.01,2013-02-06 22:00:00,
2013-02-06 17:02:00,36.0,15.7,30.20,North,6,3.0,6.0,43,0.00,,---,0.01,VWS V14.01,2013-02-06 22:02:00,
2013-02-06 17:07:00,35.8,16.0,30.20,NW,319,0.0,6.0,44,0.00,,---,0.01,VWS V14.01,2013-02-06 22:07:00,
2013-02-06 17:12:00,35.4,16.7,30.20,West,277,3.0,6.0,46,0.00,,---,0.01,VWS V14.01,2013-02-06 22:12:00,
2013-02-06 17:17:00,35.0,16.8,30.21,West,274,3.0,6.0,47,0.00,,---,0.01,VWS V14.01,2013-02-06 22:17:00,
2013-02-06 17:22:00,35.0,15.3,30.21,WNW,303,3.0,7.0,44,0.00,,---,0.01,VWS V14.01,2013-02-06 22:22:00,
2013-02-06 17:27:00,34.8,15.6,30.21,WNW,302,2.0,7.0,45,0.00,,---,0.01,VWS V14.01,2013-02-06 22:27:00,
2013-02-06 17:30:00,34.8,15.1,30.22,NNW,333,3.0,8.0,44,0.00,,---,0.01,VWS V14.01,2013-02-06 22:30:00,
2013-02-06 17:32:00,34.7,15.6,30.22,NW,326,1.0,3.0,45,0.00,,---,0.01,VWS V14.01,2013-02-06 22:32:00,
2013-02-06 17:37:00,34.5,15.4,30.22,NNW,327,3.0,5.0,45,0.00,,---,0.01,VWS V14.01,2013-02-06 22:37:00,
2013-02-06 17:42:00,34.4,15.3,30.23,West,262,7.0,10.0,45,0.00,,---,0.01,VWS V14.01,2013-02-06 22:42:00,
2013-02-06 17:47:00,34.1,15.0,30.23,NNW,337,0.0,10.0,45,0.00,,---,0.01,VWS V14.01,2013-02-06 22:47:00,
2013-02-06 17:52:00,33.9,14.3,30.24,West,273,1.0,10.0,44,0.00,,---,0.01,VWS V14.01,2013-02-06 22:52:00,
2013-02-06 17:57:00,33.7,14.6,30.24,NW,321,1.0,10.0,45,0.00,,---,0.01,VWS V14.01,2013-02-06 22:57:00,
2013-02-06 18:00:00,33.6,14.0,30.24,NNW,346,4.0,10.0,44,0.00,,---,0.01,VWS V14.01,2013-02-06 23:00:00,
2013-02-06 18:02:00,33.5,14.4,30.25,NNE,25,2.0,5.0,45,0.00,,---,0.01,VWS V14.01,2013-02-06 23:02:00,
2013-02-06 18:07:00,33.4,13.9,30.26,NNW,327,4.0,8.0,44,0.00,,---,0.01,VWS V14.01,2013-02-06 23:07:00,
2013-02-06 18:12:00,33.3,14.3,30.26,West,267,4.0,8.0,45,0.00,,---,0.01,VWS V14.01,2013-02-06 23:12:00,
2013-02-06 18:17:00,33.2,14.2,30.26,NW,309,2.0,8.0,45,0.00,,---,0.01,VWS V14.01,2013-02-06 23:17:00,
2013-02-06 18:22:00,33.0,14.0,30.26,WNW,291,0.0,8.0,45,0.00,,---,0.01,VWS V14.01,2013-02-06 23:22:00,
2013-02-06 18:27:00,32.9,13.4,30.27,NW,323,4.0,9.0,44,0.00,,---,0.01,VWS V14.01,2013-02-06 23:27:00,
2013-02-06 18:30:00,32.8,13.8,30.27,WNW,302,2.0,9.0,45,0.00,,---,0.01,VWS V14.01,2013-02-06 23:30:00,
2013-02-06 18:32:00,32.8,13.8,30.27,NW,309,4.0,5.0,45,0.00,,---,0.01,VWS V14.01,2013-02-06 23:32:00,
2013-02-06 18:37:00,32.7,13.2,30.27,North,10,1.0,7.0,44,0.00,,---,0.01,VWS V14.01,2013-02-06 23:37:00,
2013-02-06 18:42:00,32.6,13.6,30.27,West,280,2.0,7.0,45,0.00,,---,0.01,VWS V14.01,2013-02-06 23:42:00,
2013-02-06 18:47:00,32.5,13.0,30.28,WNW,291,3.0,8.0,44,0.00,,---,0.01,VWS V14.01,2013-02-06 23:47:00,
2013-02-06 18:52:00,32.5,13.0,30.28,NW,305,4.0,9.0,44,0.00,,---,0.01,VWS V14.01,2013-02-06 23:52:00,
2013-02-06 18:57:00,32.4,12.9,30.29,NW,317,5.0,9.0,44,0.00,,---,0.01,VWS V14.01,2013-02-06 23:57:00,
2013-02-06 19:00:00,32.3,13.9,30.29,NNW,347,5.0,9.0,46,0.00,,---,0.01,VWS V14.01,2013-02-07 00:00:00,
2013-02-06 19:02:00,32.3,13.4,30.29,NW,311,4.0,5.0,45,0.00,,---,0.01,VWS V14.01,2013-02-07 00:02:00,
2013-02-06 19:07:00,32.2,13.3,30.29,WNW,285,2.0,9.0,45,0.00,,---,0.01,VWS V14.01,2013-02-07 00:07:00,
2013-02-06 19:12:00,32.0,13.6,30.28,West,270,3.0,9.0,46,0.00,,---,0.01,VWS V14.01,2013-02-07 00:12:00,
2013-02-06 19:17:00,31.9,13.5,30.29,NW,315,3.0,9.0,46,0.00,,---,0.01,VWS V14.01,2013-02-07 00:17:00,
2013-02-06 19:22:00,31.8,13.9,30.29,WNW,295,2.0,9.0,47,0.00,,---,0.01,VWS V14.01,2013-02-07 00:22:00,
2013-02-06 19:27:00,31.6,13.7,30.29,NNE,18,3.0,9.0,47,0.00,,---,0.01,VWS V14.01,2013-02-07 00:27:00,
2013-02-06 19:30:00,31.5,13.6,30.29,NW,307,6.0,9.0,47,0.00,,---,0.01,VWS V14.01,2013-02-07 00:30:00,
2013-02-06 19:32:00,31.6,13.7,30.29,West,268,6.0,7.0,47,0.00,,---,0.01,VWS V14.01,2013-02-07 00:32:00,
2013-02-06 19:37:00,31.5,13.6,30.30,NNW,338,6.0,10.0,47,0.00,,---,0.01,VWS V14.01,2013-02-07 00:37:00,
2013-02-06 19:42:00,31.4,13.5,30.30,NW,325,3.0,10.0,47,0.00,,---,0.01,VWS V14.01,2013-02-07 00:42:00,
2013-02-06 19:47:00,31.2,13.3,30.31,NW,315,4.0,10.0,47,0.00,,---,0.01,VWS V14.01,2013-02-07 00:47:00,
2013-02-06 19:52:00,31.1,13.2,30.32,NW,305,5.0,10.0,47,0.00,,---,0.01,VWS V14.01,2013-02-07 00:52:00,
2013-02-06 19:57:00,31.0,13.6,30.31,NNW,344,2.0,10.0,48,0.00,,---,0.01,VWS V14.01,2013-02-07 00:57:00,
2013-02-06 20:00:00,30.9,12.6,30.31,WNW,282,4.0,10.0,46,0.00,,---,0.01,VWS V14.01,2013-02-07 01:00:00,
2013-02-06 20:02:00,30.9,11.6,30.32,North,352,10.0,11.0,44,0.00,,---,0.01,VWS V14.01,2013-02-07 01:02:00,
2013-02-06 20:07:00,30.7,11.9,30.31,NNW,347,3.0,11.0,45,0.00,,---,0.01,VWS V14.01,2013-02-07 01:07:00,
2013-02-06 20:12:00,30.5,11.2,30.31,North,352,5.0,11.0,44,0.00,,---,0.01,VWS V14.01,2013-02-07 01:12:00,
2013-02-06 20:17:00,30.4,11.1,30.32,North,352,8.0,11.0,44,0.00,,---,0.01,VWS V14.01,2013-02-07 01:17:00,
2013-02-06 20:22:00,30.4,11.1,30.32,NNW,342,1.0,11.0,44,0.00,,---,0.01,VWS V14.01,2013-02-07 01:22:00,
2013-02-06 20:27:00,30.2,10.9,30.33,NNW,331,1.0,11.0,44,0.00,,---,0.01,VWS V14.01,2013-02-07 01:27:00,
2013-02-06 20:30:00,30.1,10.3,30.33,NNW,334,1.0,11.0,43,0.00,,---,0.01,VWS V14.01,2013-02-07 01:30:00,
2013-02-06 20:32:00,30.1,10.3,30.33,North,360,1.0,3.0,43,0.00,,---,0.01,VWS V14.01,2013-02-07 01:32:00,
2013-02-06 20:37:00,30.0,9.7,30.33,NNW,335,3.0,6.0,42,0.00,,---,0.01,VWS V14.01,2013-02-07 01:37:00,
2013-02-06 20:42:00,29.9,10.6,30.33,NNE,18,8.0,8.0,44,0.00,,---,0.01,VWS V14.01,2013-02-07 01:42:00,
2013-02-06 20:47:00,29.8,9.0,30.33,NW,325,2.0,8.0,41,0.00,,---,0.01,VWS V14.01,2013-02-07 01:47:00,
2013-02-06 20:52:00,29.7,7.8,30.33,NW,322,6.0,9.0,39,0.00,,---,0.01,VWS V14.01,2013-02-07 01:52:00,
2013-02-06 20:57:00,29.6,7.7,30.33,North,4,3.0,9.0,39,0.00,,---,0.01,VWS V14.01,2013-02-07 01:57:00,
2013-02-06 21:00:00,29.6,7.1,30.33,WNW,302,3.0,9.0,38,0.00,,---,0.01,VWS V14.01,2013-02-07 02:00:00,
2013-02-06 21:02:00,29.5,7.0,30.33,West,278,0.0,6.0,38,0.00,,---,0.01,VWS V14.01,2013-02-07 02:02:00,
2013-02-06 21:07:00,29.4,6.4,30.33,NNE,30,6.0,7.0,37,0.00,,---,0.01,VWS V14.01,2013-02-07 02:07:00,
2013-02-06 21:12:00,29.4,6.9,30.34,East,81,4.0,8.0,38,0.00,,---,0.01,VWS V14.01,2013-02-07 02:12:00,
2013-02-06 21:17:00,29.2,7.3,30.34,NE,46,3.0,8.0,39,0.00,,---,0.01,VWS V14.01,2013-02-07 02:17:00,
2013-02-06 21:22:00,29.2,7.3,30.34,SW,235,3.0,8.0,39,0.00,,---,0.01,VWS V14.01,2013-02-07 02:22:00,
2013-02-06 21:27:00,29.1,7.2,30.34,WNW,300,0.0,8.0,39,0.00,,---,0.01,VWS V14.01,2013-02-07 02:27:00,
2013-02-06 21:30:00,29.1,6.1,30.34,NNE,27,6.0,9.0,37,0.00,,---,0.01,VWS V14.01,2013-02-07 02:30:00,
2013-02-06 21:32:00,29.1,5.5,30.34,NNW,332,1.0,7.0,36,0.00,,---,0.01,VWS V14.01,2013-02-07 02:32:00,
2013-02-06 21:37:00,29.1,5.5,30.34,NNE,19,7.0,10.0,36,0.00,,---,0.01,VWS V14.01,2013-02-07 02:37:00,
2013-02-06 21:42:00,29.0,5.4,30.34,NNE,20,3.0,10.0,36,0.00,,---,0.01,VWS V14.01,2013-02-07 02:42:00,
2013-02-06 21:47:00,28.9,4.7,30.34,WNW,298,3.0,10.0,35,0.00,,---,0.01,VWS V14.01,2013-02-07 02:47:00,
2013-02-06 21:52:00,28.7,6.3,30.34,NE,39,4.0,10.0,38,0.00,,---,0.01,VWS V14.01,2013-02-07 02:52:00,
2013-02-06 21:57:00,28.6,5.0,30.34,North,5,1.0,10.0,36,0.00,,---,0.01,VWS V14.01,2013-02-07 02:57:00,
2013-02-06 22:00:00,28.6,5.1,30.35,NE,41,1.0,10.0,36,0.00,,---,0.01,VWS V14.01,2013-02-07 03:00:00,
2013-02-06 22:02:00,28.5,5.6,30.35,NE,34,2.0,4.0,37,0.00,,---,0.01,VWS V14.01,2013-02-07 03:02:00,
2013-02-06 22:07:00,28.4,6.1,30.35,NW,322,1.0,6.0,38,0.00,,---,0.01,VWS V14.01,2013-02-07 03:07:00,
2013-02-06 22:12:00,28.3,6.0,30.35,NNW,335,2.0,6.0,38,0.00,,---,0.01,VWS V14.01,2013-02-07 03:12:00,
2013-02-06 22:17:00,28.2,5.3,30.35,NNE,23,5.0,6.0,37,0.00,,---,0.01,VWS V14.01,2013-02-07 03:17:00,
2013-02-06 22:22:00,28.1,6.9,30.35,NW,311,3.0,6.0,40,0.00,,---,0.01,VWS V14.01,2013-02-07 03:22:00,
2013-02-06 22:27:00,28.1,5.8,30.35,NNE,20,5.0,7.0,38,0.00,,---,0.01,VWS V14.01,2013-02-07 03:27:00,
2013-02-06 22:30:00,28.0,6.3,30.35,NE,48,5.0,7.0,39,0.00,,---,0.01,VWS V14.01,2013-02-07 03:30:00,
2013-02-06 22:32:00,28.0,6.3,30.35,NNE,23,4.0,8.0,39,0.00,,---,0.01,VWS V14.01,2013-02-07 03:32:00,
2013-02-06 22:37:00,27.9,6.2,30.35,North,1,4.0,8.0,39,0.00,,---,0.01,VWS V14.01,2013-02-07 03:37:00,
2013-02-06 22:42:00,27.8,4.9,30.36,NNE,23,3.0,12.0,37,0.00,,---,0.01,VWS V14.01,2013-02-07 03:42:00,
2013-02-06 22:47:00,27.8,5.5,30.36,NNW,332,4.0,12.0,38,0.00,,---,0.01,VWS V14.01,2013-02-07 03:47:00,
2013-02-06 22:52:00,27.7,5.4,30.36,NNE,27,4.0,12.0,38,0.00,,---,0.01,VWS V14.01,2013-02-07 03:52:00,
2013-02-06 22:57:00,27.6,5.9,30.36,NW,315,3.0,12.0,39,0.00,,---,0.01,VWS V14.01,2013-02-07 03:57:00,
2013-02-06 23:00:00,27.5,5.8,30.36,NNW,347,1.0,12.0,39,0.00,,---,0.01,VWS V14.01,2013-02-07 04:00:00,
2013-02-06 23:02:00,27.5,5.8,30.36,North,349,4.0,6.0,39,0.00,,---,0.01,VWS V14.01,2013-02-07 04:02:00,
2013-02-06 23:07:00,27.4,5.2,30.36,NNE,32,0.0,9.0,38,0.00,,---,0.01,VWS V14.01,2013-02-07 04:07:00,
2013-02-06 23:12:00,27.1,4.9,30.36,SSE,162,0.0,9.0,38,0.00,,---,0.01,VWS V14.01,2013-02-07 04:12:00,
2013-02-06 23:17:00,27.0,4.2,30.37,NE,36,2.0,9.0,37,0.00,,---,0.01,VWS V14.01,2013-02-07 04:17:00,
2013-02-06 23:22:00,26.9,4.7,30.37,North,360,0.0,9.0,38,0.00,,---,0.01,VWS V14.01,2013-02-07 04:22:00,
2013-02-06 23:27:00,26.6,4.4,30.37,WSW,248,1.0,9.0,38,0.00,,---,0.01,VWS V14.01,2013-02-07 04:27:00,
2013-02-06 23:30:00,26.6,5.0,30.37,West,260,0.0,9.0,39,0.00,,---,0.01,VWS V14.01,2013-02-07 04:30:00,
2013-02-06 23:32:00,26.5,4.9,30.37,West,265,1.0,1.0,39,0.00,,---,0.01,VWS V14.01,2013-02-07 04:32:00,
2013-02-06 23:37:00,26.4,4.8,30.37,NE,42,3.0,3.0,39,0.00,,---,0.01,VWS V14.01,2013-02-07 04:37:00,
2013-02-06 23:42:00,26.4,4.2,30.37,NE,44,0.0,3.0,38,0.00,,---,0.01,VWS V14.01,2013-02-07 04:42:00,
2013-02-06 23:47:00,26.3,4.7,30.37,NE,38,0.0,3.0,39,0.00,,---,0.01,VWS V14.01,2013-02-07 04:47:00,
2013-02-06 23:52:00,26.2,4.6,30.37,NE,49,2.0,4.0,39,0.00,,---,0.01,VWS V14.01,2013-02-07 04:52:00,
2013-02-06 23:57:00,26.2,5.2,30.37,NNE,21,2.0,4.0,40,0.00,,---,0.01,VWS V14.01,2013-02-07 04:57:00,